IGO716 VOCI-VOBL

Flight info

Callsign IGO716
Flight time 0h 35m
Altitude 31000
Route CCB1C CCB W43 UGABA UGABA7E
Aircraft A20N/M-SDE2E3FGHIRWXY/LB1

Departure

Time 2026-05-04 19:26
Airport Cochin International Airport (VOCI)

Arrival

Time 2026-05-04 20:02
Airport Kempegowda International Airport Bengaluru (VOBL)
Time Latitude Longitude Altitude Speed Heading
2026-05-04 18:56 10.15674 76.39676 26 ft 0 kts 355°
2026-05-04 19:12 10.15664 76.39677 22 ft 2 kts 357°
2026-05-04 19:12 10.15648 76.39677 26 ft 2 kts
2026-05-04 19:13 10.15632 76.39672 26 ft 2 kts 61°
2026-05-04 19:13 10.15628 76.39660 26 ft 1 kts 84°
2026-05-04 19:13 10.15628 76.39658 26 ft 0 kts 84°
2026-05-04 19:14 10.15628 76.39659 26 ft 0 kts 84°
2026-05-04 19:17 10.15627 76.39687 25 ft 1 kts 109°
2026-05-04 19:17 10.15613 76.39708 24 ft 3 kts 155°
2026-05-04 19:17 10.15576 76.39724 26 ft 8 kts 158°
2026-05-04 19:17 10.15538 76.39770 22 ft 10 kts 86°
2026-05-04 19:18 10.15545 76.39849 22 ft 13 kts 86°
2026-05-04 19:18 10.15515 76.39930 26 ft 13 kts 162°
2026-05-04 19:18 10.15416 76.39937 23 ft 16 kts 179°
2026-05-04 19:18 10.15301 76.39952 25 ft 17 kts 149°
2026-05-04 19:19 10.15287 76.40069 28 ft 19 kts 87°
2026-05-04 19:19 10.15294 76.40208 24 ft 21 kts 88°
2026-05-04 19:19 10.15297 76.40310 24 ft 22 kts 85°
2026-05-04 19:19 10.15305 76.40476 24 ft 24 kts 88°
2026-05-04 19:20 10.15311 76.40654 23 ft 26 kts 88°
2026-05-04 19:20 10.15317 76.40845 23 ft 28 kts 87°
2026-05-04 19:20 10.15327 76.41111 24 ft 29 kts 87°
2026-05-04 19:20 10.15331 76.41253 24 ft 30 kts 88°
2026-05-04 19:21 10.15338 76.41449 26 ft 25 kts 87°
2026-05-04 19:21 10.15317 76.41570 27 ft 10 kts 139°
2026-05-04 19:21 10.15275 76.41583 27 ft 0 kts 172°
2026-05-04 19:22 10.15274 76.41583 27 ft 0 kts 172°
2026-05-04 19:24 10.15269 76.41584 27 ft 4 kts 177°
2026-05-04 19:24 10.15208 76.41583 30 ft 12 kts 190°
2026-05-04 19:24 10.15165 76.41516 29 ft 7 kts 269°
2026-05-04 19:24 10.15165 76.41514 29 ft 0 kts 269°
2026-05-04 19:26 10.15165 76.41460 29 ft 37 kts 269°
2026-05-04 19:26 10.15141 76.40900 29 ft 118 kts 268°
2026-05-04 19:26 10.15094 76.39847 32 ft 178 kts 266°
2026-05-04 19:26 10.15042 76.38555 719 ft 179 kts 268°
2026-05-04 19:27 10.15032 76.37320 1633 ft 177 kts 269°
2026-05-04 19:27 10.15016 76.36033 2372 ft 187 kts 268°
2026-05-04 19:27 10.14990 76.34692 3116 ft 193 kts 273°
2026-05-04 19:27 10.15398 76.33363 3675 ft 209 kts 304°
2026-05-04 19:28 10.16450 76.32350 4667 ft 211 kts 326°
2026-05-04 19:28 10.17674 76.31597 5842 ft 203 kts 325°
2026-05-04 19:28 10.18847 76.30719 6631 ft 222 kts 320°
2026-05-04 19:28 10.20272 76.29765 6748 ft 268 kts 338°
2026-05-04 19:29 10.22177 76.29184 6883 ft 304 kts 345°
2026-05-04 19:29 10.24321 76.28540 6973 ft 339 kts 341°
2026-05-04 19:29 10.26619 76.27607 6978 ft 372 kts 336°
2026-05-04 19:29 10.29044 76.26409 6975 ft 401 kts 333°
2026-05-04 19:30 10.31604 76.25089 7086 ft 419 kts 335°
2026-05-04 19:30 10.34198 76.23879 8123 ft 404 kts 335°
2026-05-04 19:30 10.36752 76.22706 8487 ft 403 kts 339°
2026-05-04 19:30 10.39466 76.22225 8861 ft 398 kts
2026-05-04 19:31 10.42065 76.23104 9208 ft 396 kts 32°
2026-05-04 19:31 10.44196 76.24916 9267 ft 410 kts 47°
2026-05-04 19:31 10.45906 76.27314 8984 ft 426 kts 59°
2026-05-04 19:31 10.47227 76.29848 8709 ft 392 kts 75°
2026-05-04 19:32 10.47183 76.32511 8034 ft 373 kts 102°
2026-05-04 19:32 10.46733 76.35019 7684 ft 352 kts 95°
2026-05-04 19:32 10.46702 76.37472 7335 ft 343 kts 85°
2026-05-04 19:32 10.47021 76.39842 7033 ft 334 kts 78°
2026-05-04 19:33 10.47535 76.42077 6993 ft 316 kts 75°
2026-05-04 19:33 10.48107 76.44170 6996 ft 298 kts 73°
2026-05-04 19:33 10.48677 76.46135 6999 ft 282 kts 73°
2026-05-04 19:33 10.49237 76.48041 7006 ft 285 kts 73°
2026-05-04 19:34 10.49795 76.49942 7004 ft 284 kts 73°
2026-05-04 19:34 10.50354 76.51861 7009 ft 283 kts 73°
2026-05-04 19:34 10.51050 76.53733 7008 ft 283 kts 61°
2026-05-04 19:34 10.52195 76.55354 7012 ft 283 kts 46°
2026-05-04 19:35 10.53636 76.56727 7123 ft 286 kts 43°
2026-05-04 19:35 10.55091 76.58114 7755 ft 286 kts 43°
2026-05-04 19:35 10.56518 76.59489 8808 ft 281 kts 43°
2026-05-04 19:35 10.57943 76.60866 9650 ft 285 kts 44°
2026-05-04 19:36 10.59390 76.62266 10343 ft 294 kts 44°
2026-05-04 19:36 10.60931 76.63755 10603 ft 317 kts 44°
2026-05-04 19:36 10.62578 76.65350 10893 ft 336 kts 44°
2026-05-04 19:36 10.64289 76.67006 11583 ft 340 kts 44°
2026-05-04 19:37 10.66010 76.68673 12331 ft 344 kts 44°
2026-05-04 19:37 10.67754 76.70363 13069 ft 348 kts 44°
2026-05-04 19:37 10.69519 76.72072 13772 ft 352 kts 44°
2026-05-04 19:37 10.71308 76.73805 14407 ft 357 kts 44°
2026-05-04 19:38 10.73117 76.75558 14978 ft 362 kts 44°
2026-05-04 19:38 10.74959 76.77343 15548 ft 368 kts 44°
2026-05-04 19:38 10.76823 76.79151 16110 ft 373 kts 44°
2026-05-04 19:38 10.78714 76.80984 16683 ft 378 kts 44°
2026-05-04 19:39 10.80631 76.82842 17214 ft 384 kts 44°
2026-05-04 19:39 10.82572 76.84725 17767 ft 388 kts 44°
2026-05-04 19:39 10.84539 76.86633 18290 ft 393 kts 44°
2026-05-04 19:39 10.86525 76.88559 18770 ft 397 kts 44°
2026-05-04 19:40 10.88532 76.90507 19252 ft 400 kts 44°
2026-05-04 19:40 10.90554 76.92469 19732 ft 404 kts 44°
2026-05-04 19:40 10.92596 76.94452 20205 ft 407 kts 44°
2026-05-04 19:40 10.94653 76.96448 20674 ft 411 kts 44°
2026-05-04 19:41 10.97011 76.98738 21185 ft 415 kts 44°
2026-05-04 19:41 11.01257 77.02797 22071 ft 423 kts 39°
2026-05-04 19:41 11.06510 77.05543 22943 ft 429 kts 15°
2026-05-04 19:41 11.12393 77.06809 23675 ft 435 kts 11°
2026-05-04 19:42 11.18293 77.08090 23844 ft 434 kts 12°
2026-05-04 19:42 11.24207 77.09374 23938 ft 434 kts 12°
2026-05-04 19:42 11.30118 77.10654 23939 ft 434 kts 12°
2026-05-04 19:42 11.39454 77.12674 23942 ft 434 kts 12°
2026-05-04 19:43 11.51271 77.15239 23943 ft 434 kts 12°
2026-05-04 19:43 11.63096 77.17817 23952 ft 434 kts 12°
2026-05-04 19:43 11.74954 77.20402 25073 ft 440 kts 12°
2026-05-04 19:43 11.86920 77.23018 26462 ft 448 kts 12°
2026-05-04 19:44 11.99180 77.25698 26967 ft 452 kts 11°
2026-05-04 19:44 12.11452 77.28381 26969 ft 451 kts 11°
2026-05-04 19:44 12.23277 77.32612 26976 ft 452 kts 21°
2026-05-04 19:44 12.34925 77.37436 25949 ft 452 kts 21°
2026-05-04 19:45 12.46737 77.42344 22940 ft 454 kts 22°
2026-05-04 19:45 12.54299 77.45492 21306 ft 441 kts 22°
2026-05-04 19:45 12.57127 77.46669 20757 ft 435 kts 22°
2026-05-04 19:45 12.59880 77.47817 20576 ft 420 kts 22°
2026-05-04 19:46 12.62535 77.48923 20433 ft 404 kts 22°
2026-05-04 19:46 12.66276 77.50482 20240 ft 383 kts 22°
2026-05-04 19:46 12.71043 77.52470 20003 ft 357 kts 22°
2026-05-04 19:46 12.75479 77.54321 19816 ft 333 kts 22°
2026-05-04 19:47 12.79621 77.56050 19612 ft 309 kts 22°
2026-05-04 19:47 12.83487 77.57664 19178 ft 296 kts 22°
2026-05-04 19:47 12.87280 77.59248 18509 ft 293 kts 22°
2026-05-04 19:47 12.91200 77.60223 17791 ft 289 kts 360°
2026-05-04 19:48 12.94970 77.60069 17143 ft 284 kts 358°
2026-05-04 19:48 12.98879 77.59944 16489 ft 279 kts 358°
2026-05-04 19:48 13.02725 77.59822 15859 ft 273 kts 359°
2026-05-04 19:48 13.06279 77.59707 15264 ft 269 kts 359°
2026-05-04 19:49 13.08134 77.59601 14948 ft 267 kts 349°
2026-05-04 19:49 13.09818 77.58845 14599 ft 267 kts 322°
2026-05-04 19:49 13.10970 77.57357 14231 ft 270 kts 294°
2026-05-04 19:49 13.11334 77.55477 13856 ft 272 kts 269°
2026-05-04 19:50 13.11155 77.53557 13607 ft 267 kts 263°
2026-05-04 19:50 13.10918 77.51707 13449 ft 256 kts 265°
2026-05-04 19:50 13.10766 77.49935 13311 ft 244 kts 268°
2026-05-04 19:50 13.10695 77.48222 13034 ft 238 kts 270°
2026-05-04 19:51 13.10674 77.46528 12700 ft 237 kts 272°
2026-05-04 19:51 13.10677 77.44872 12367 ft 235 kts 272°
2026-05-04 19:51 13.10689 77.43202 12048 ft 233 kts 272°
2026-05-04 19:51 13.10701 77.41548 11734 ft 231 kts 272°
2026-05-04 19:52 13.10719 77.39907 11420 ft 229 kts 273°
2026-05-04 19:52 13.10712 77.38275 11101 ft 228 kts 276°
2026-05-04 19:52 13.11164 77.36771 10767 ft 220 kts 308°
2026-05-04 19:52 13.12035 77.35489 10452 ft 219 kts 304°
2026-05-04 19:53 13.12839 77.34168 10165 ft 217 kts 304°
2026-05-04 19:53 13.13633 77.32853 9870 ft 216 kts 304°
2026-05-04 19:53 13.14419 77.31543 9552 ft 216 kts 304°
2026-05-04 19:53 13.15221 77.30217 9162 ft 217 kts 304°
2026-05-04 19:54 13.16254 77.29151 8878 ft 210 kts 335°
2026-05-04 19:54 13.17662 77.28868 8516 ft 209 kts
2026-05-04 19:54 13.18975 77.29461 8146 ft 211 kts 43°
2026-05-04 19:54 13.19737 77.30745 7784 ft 215 kts 71°
2026-05-04 19:55 13.20051 77.32252 7466 ft 217 kts 81°
2026-05-04 19:55 13.20265 77.33777 7191 ft 216 kts 81°
2026-05-04 19:55 13.20428 77.35280 7076 ft 213 kts 87°
2026-05-04 19:55 13.20481 77.36832 7012 ft 218 kts 88°
2026-05-04 19:56 13.20534 77.38381 6938 ft 216 kts 88°
2026-05-04 19:56 13.20590 77.39919 6874 ft 215 kts 88°
2026-05-04 19:56 13.20653 77.41434 6791 ft 208 kts 88°
2026-05-04 19:56 13.20713 77.42891 6717 ft 204 kts 89°
2026-05-04 19:57 13.20755 77.44355 6652 ft 206 kts 90°
2026-05-04 19:57 13.20774 77.45828 6583 ft 206 kts 90°
2026-05-04 19:57 13.20779 77.47288 6600 ft 202 kts 91°
2026-05-04 19:57 13.20778 77.48738 6560 ft 202 kts 91°
2026-05-04 19:58 13.20776 77.50155 6488 ft 197 kts 91°
2026-05-04 19:58 13.20772 77.51562 6454 ft 197 kts 91°
2026-05-04 19:58 13.20768 77.52966 6447 ft 197 kts 91°
2026-05-04 19:58 13.20766 77.54371 6336 ft 195 kts 91°
2026-05-04 19:59 13.20769 77.55755 5961 ft 194 kts 92°
2026-05-04 19:59 13.20743 77.57125 5480 ft 196 kts 94°
2026-05-04 19:59 13.20734 77.58536 4987 ft 198 kts 92°
2026-05-04 19:59 13.20726 77.59910 4583 ft 188 kts 92°
2026-05-04 20:00 13.20722 77.61195 4425 ft 184 kts 93°
2026-05-04 20:00 13.20716 77.62539 4275 ft 188 kts 92°
2026-05-04 20:00 13.20715 77.63872 3874 ft 189 kts 93°
2026-05-04 20:00 13.20707 77.65171 3701 ft 177 kts 93°
2026-05-04 20:01 13.20701 77.66465 3525 ft 186 kts 92°
2026-05-04 20:01 13.20698 77.67774 3275 ft 180 kts 92°
2026-05-04 20:01 13.20723 77.69059 3018 ft 177 kts 90°
2026-05-04 20:01 13.20708 77.70139 3011 ft 121 kts 90°
2026-05-04 20:02 13.20701 77.70726 3011 ft 54 kts 89°
2026-05-04 20:02 13.20662 77.70957 3010 ft 31 kts 114°
2026-05-04 20:02 13.20575 77.71111 3011 ft 0 kts 120°
2026-05-04 20:03 13.20573 77.71115 3011 ft 3 kts 120°
2026-05-04 20:04 13.20549 77.71156 3012 ft 11 kts 120°
2026-05-04 20:04 13.20527 77.71218 3014 ft 2 kts 98°
2026-05-04 20:04 13.20518 77.71256 3011 ft 8 kts 117°
2026-05-04 20:04 13.20461 77.71278 3011 ft 10 kts 176°
2026-05-04 20:05 13.20384 77.71278 3011 ft 10 kts 181°
2026-05-04 20:05 13.20305 77.71276 3013 ft 12 kts 179°
2026-05-04 20:05 13.20261 77.71220 3011 ft 12 kts 272°
2026-05-04 20:05 13.20232 77.71164 3011 ft 9 kts 190°
2026-05-04 20:06 13.20188 77.71163 3014 ft 5 kts 180°
2026-05-04 20:06 13.20165 77.71163 3011 ft 0 kts 182°
2026-05-04 20:06 13.20163 77.71163 3011 ft 0 kts 181°
2026-05-04 20:07 13.20160 77.71162 3011 ft 0 kts 181°